User: anonymous   Login
Location: Владивосток
(43.1151°N, 131.8856°E)
Time: 19:58:03
(UTC+10:00)
Language:

NOAA 16 DEB - Orbit

View from above orbital plane
View from above orbital plane
View from above satellite
View from above satellite

Ground track
Ground track

The orbit data is extracted from the following two-line orbital elements,

1 41163U 00055CW  24205.62653712  .00016440  00000-0  45266-2 0  9990
2 41163  99.0378  86.1705 0055995 260.6447  98.8409 14.46036512451507
Epoch (UTC): 23 July 2024 15:02:12
Eccentricity: 0.0055995
inclination: 99.0378°
perigee height: 699 km
apogee height: 778 km
right ascension of ascending node: 86.1705°
argument of perigee: 260.6447°
revolutions per day: 14.46036512
mean anomaly at epoch: 98.8409°
orbit number at epoch: 45150

The dashed part of the orbit path shows where the satellite is in the earth's shadow,  

DLR